Syracuse, NY

6:09 AM EST on December 09, 2019 (GMT -0500)
Syracuse Hancock International

Weather History for KSYR - October, 2019

Change the Weather History Date:

Thursday, October 10, 2019

  Actual Average Record
Temperature  
Mean Temperature 54 °F 52 °F  
Max Temperature 66 °F 62 °F 85 °F (1949)
Min Temperature 42 °F 43 °F 27 °F (1986)
Degree Days  
Heating Degree Days 10 13  
Month to date heating degree days 99 112  
Since 1 July heating degree days 174 279  
Cooling Degree Days 0 0  
Month to date cooling degree days 11 0  
Year to date cooling degree days 622 565  
Growing Degree Days 4 (Base 50)    
Moisture  
Dew Point 43 °F    
Average Humidity 73    
Maximum Humidity 96    
Minimum Humidity 40    
Precipitation  
Precipitation 0.00 in 0.12 in 1.71 in (1950)
Month to date precipitation 1.57 1.15  
Year to date precipitation 35.70 29.43  
Snow  
Snow 0.00 in 0.00 in 0.30 in (1964)
Month to date snowfall 0.0 0.0  
Since 1 July snowfall T 0.0  
Since 1 September snowfall T 0.0  
Snow Depth 0.00 in    
Sea Level Pressure  
Sea Level Pressure 30.30 in    
Wind  
Wind Speed 3 mph ()    
Max Wind Speed 12 mph    
Max Gust Speed 17 mph    
Visibility 10.0 miles    
Events Fog    
T = Trace of Precipitation, MM = Missing Value Source: Averaged Metar Reports

Daily Weather History Graph

Daily Weather History Graph

Search for Another Location

Airport or City:

Astronomy

Oct. 10, 2019 Rise Set
Actual Time 7:11 AM EDT 6:30 PM EDT
Civil Twilight 6:43 AM EDT 6:58 PM EDT
Nautical Twilight 6:10 AM EDT 7:31 PM EDT
Astronomical Twilight 5:37 AM EDT 8:04 PM EDT
Moon 5:37 PM EDT (10/10) 3:45 AM EDT (10/10)
Length of Visible Light 12h 15m
Length of Day
11h 18m
Waxing Gibbous, 91% of the Moon is Illuminated
Oct 10
Waxing Gibbous
Oct 13
Full
Oct 21
Last Quarter
Oct 27
New
Nov 4
First Quarter

Hourly Weather History & Observations

Time (EDT) Temp. Windchill Dew Point Humidity Pressure Visibility Wind Dir Wind Speed Gust Speed Precip Events Conditions
12:54 AM 48.0 °F - 44.1 °F 86% 30.33 in 10.0 mi Calm Calm - N/A   Mostly Cloudy
1:54 AM 48.0 °F - 44.1 °F 86% 30.33 in 10.0 mi Calm Calm - N/A   Mostly Cloudy
2:54 AM 46.9 °F - 43.0 °F 86% 30.32 in 10.0 mi Calm Calm - N/A   Scattered Clouds
3:54 AM 44.1 °F 42.5 °F 41.0 °F 89% 30.32 in 10.0 mi East 3.5 mph - N/A   Partly Cloudy
4:54 AM 43.0 °F - 41.0 °F 93% 30.32 in 10.0 mi Calm Calm - N/A   Partly Cloudy
5:54 AM 44.1 °F 42.5 °F 42.1 °F 93% 30.33 in 10.0 mi East 3.5 mph - N/A   Partly Cloudy
6:54 AM 43.0 °F 41.3 °F 41.0 °F 93% 30.35 in 10.0 mi ESE 3.5 mph - N/A   Partly Cloudy
7:54 AM 43.0 °F - 41.0 °F 93% 30.35 in 10.0 mi Calm Calm - N/A Fog Shallow Fog
8:54 AM 46.9 °F - 44.1 °F 90% 30.36 in 10.0 mi SE 3.5 mph - N/A   Mostly Cloudy
9:54 AM 53.1 °F - 46.0 °F 77% 30.36 in 10.0 mi East 3.5 mph - N/A   Scattered Clouds
10:54 AM 57.9 °F - 46.0 °F 65% 30.35 in 10.0 mi ENE 6.9 mph - N/A   Partly Cloudy
11:54 AM 61.0 °F - 44.1 °F 54% 30.33 in 10.0 mi ENE 10.4 mph - N/A   Partly Cloudy
12:54 PM 63.0 °F - 43.0 °F 48% 30.30 in 10.0 mi East 6.9 mph - N/A   Partly Cloudy
1:54 PM 64.9 °F - 45.0 °F 48% 30.29 in 10.0 mi Variable 6.9 mph - N/A   Partly Cloudy
2:54 PM 66.0 °F - 44.1 °F 45% 30.28 in 10.0 mi ENE 8.1 mph - N/A   Partly Cloudy
3:54 PM 66.9 °F - 42.1 °F 40% 30.27 in 10.0 mi ENE 8.1 mph - N/A   Partly Cloudy
4:54 PM 66.0 °F - 42.1 °F 42% 30.26 in 10.0 mi NE 6.9 mph - N/A   Partly Cloudy
5:54 PM 64.0 °F - 41.0 °F 43% 30.26 in 10.0 mi NE 3.5 mph - N/A   Partly Cloudy
6:54 PM 55.0 °F - 44.1 °F 67% 30.26 in 10.0 mi NNE 4.6 mph - N/A   Partly Cloudy
7:54 PM 52.0 °F - 43.0 °F 71% 30.27 in 10.0 mi North 6.9 mph - N/A   Partly Cloudy
8:54 PM 51.1 °F - 45.0 °F 80% 30.26 in 10.0 mi East 3.5 mph - N/A   Partly Cloudy
9:54 PM 48.9 °F - 44.1 °F 83% 30.27 in 10.0 mi Calm Calm - N/A   Partly Cloudy
10:54 PM 46.9 °F - 43.0 °F 86% 30.28 in 10.0 mi East 4.6 mph - N/A   Partly Cloudy
11:54 PM 45.0 °F 42.6 °F 39.9 °F 82% 30.27 in 10.0 mi SE 4.6 mph - N/A   Partly Cloudy